{"data":{"norad_id":53320,"epoch":"2026-09-20T23:17:51.808128Z","epoch_age_seconds":99678,"freshness":"FRESH","line1":"1 53320U 22088E   26263.97073852  .00039192  00000+0  62603-3 0  9996","line2":"2 53320  34.9933 245.6727 0003876 230.9257 129.1122 15.52118098231791","mean_motion":15.52118098,"eccentricity":0.0003876,"inclination_deg":34.9933,"raan_deg":245.6727,"arg_perigee_deg":230.9257,"mean_anomaly_deg":129.1122,"bstar":0.00062603,"rev_number":23179,"period_min":92.776445417106,"perigee_km":407.9116300058,"apogee_km":413.1742146816,"semimajor_km":6788.6799223437,"source":"CELESTRAK","updated_at":"2026-09-21T09:00:08.994190Z"}}